User: anonymous
Location: Caltech
(34.1382°N, 118.1253°W)
Time: 04:04:40
(UTC-07:00)
Language:

Cosmos 2251 Rocket - Orbit

View from above orbital plane
View from above orbital plane
View from above satellite
View from above satellite

Ground track
Ground track

The orbit data is extracted from the following two-line orbital elements,

1 22676U 93036B   14107.64477531  .00000358  00000-0  13858-3 0  1989
2 22676 074.0417 136.5985 0017674 085.4929 274.8241 14.33581249 89585
Epoch (UTC): 17 April 2014 15:28:28
Eccentricity: 0.0017674
inclination: 74.0417°
perigee height: 767 km
apogee height: 792 km
right ascension of ascending node: 136.5985°
argument of perigee: 85.4929°
revolutions per day: 14.33581249
mean anomaly at epoch: 274.8241°
orbit number at epoch: 8958

The dashed part of the orbit path shows where the satellite is in the earth's shadow,  

DLR